Regional Weather Roundup
Issued by NWS Jackson, KY

Current Version | Previous Version | Text Only | Print | Product List | Glossary On
Versions: 1 2 3 4 5 6 7 8 9 10 11 12 13 14 15 16 17 18 19 20 21 22 23 24 25 26 27 28 29 30 31 32 33 34 35 36 37 38 39 40 41 42 43 44 45 46 47 48 49 50
000
ASUS43 KJKL 060210
RWRJKL

EAST KENTUCKY HOURLY WEATHER ROUNDUP
NATIONAL WEATHER SERVICE JACKSON KY
1000 PM EDT TUE MAY 05 2015

NOTE: "FAIR" INDICATES FEW OR NO CLOUDS BELOW 12,000 FEET WITH
NO SIGNIFICANT WEATHER AND/OR OBSTRUCTIONS TO VISIBILITY.

* THESE REPORTS ARE NOT UNDER NWS QUALITY CONTROL AND MAY NOT
  REPORT WEATHER SUCH AS PRECIPITATION AND FOG.

KYZ079-080-083-085-087-088-110-112-115-119-120-060300
...EASTERN KENTUCKY...

CITY           SKY/WX    TMP DP  RH WIND       PRES   REMARKS
JACKSON        CLEAR     73  50  44 CALM      30.24R
LONDON         CLEAR     68  53  58 CALM      30.22R
SOMERSET*      CLEAR     66  54  63 CALM      30.23R
MONTICELLO*    CLEAR     64  56  75 CALM      30.24R
MIDDLESBORO*   CLEAR     66  54  65 CALM      30.24R
HARLAN APT*    CLEAR     64  54  68 CALM      30.25R
HAZARD APT*    CLEAR     72  55  56 CALM      30.24R
BLACK MTN*       N/A     63  48  59 SE2         N/A
PIKEVILLE APT* CLEAR     73  54  49 CALM      30.24R
BIG SANDY*     CLEAR     70  55  57 CALM      30.23R
MOREHEAD APT*  CLEAR     73  52  46 CALM      30.24R
$$

KYZ035-036-041-042-044-050-067-078-099-060300
...CENTRAL KENTUCKY...

CITY           SKY/WX    TMP DP  RH WIND       PRES   REMARKS
MT STERLING*   CLEAR     64  59  82 CALM      30.23S
FLEMING/MASON* CLEAR     72  55  56 S5        30.23R
DANVILLE*      CLEAR     64  55  72 CALM      30.23R
RICHMOND*      CLEAR     72  54  53 CALM      30.22R
LEXINGTON      CLEAR     69  57  65 S6        30.22R
FRANKFORT      CLEAR     66  54  65 CALM      30.19S
$$

KYZ091>093-OHZ055-061-077-WVZ005-015-034-035-042-060300
...SOUTHERN OHIO/WEST VIRGINIA...

CITY           SKY/WX    TMP DP  RH WIND       PRES   REMARKS
COVINGTON      CLEAR     66  55  67 S3        30.20R
COLUMBUS       PTCLDY    70  56  61 CALM      30.19R
DAYTON         PTCLDY    75  53  46 S6        30.20R
WILMINGTON     CLEAR     69  52  54 CALM      30.21R
HUNTINGTON     CLEAR     69  55  60 CALM      30.20R
CHARLESTON     CLEAR     70  56  61 CALM      30.21R
PINEVILLE*     MOCLDY    64  60  85 MISG      30.31R
BECKLEY        PTCLDY    64  51  62 E5        30.30R
BLUEFIELD      PTCLDY    69  48  47 E3        30.32R
$$

VAZ002-007-008-TNZ017-027-036-066-071-060300
...SOUTHWEST VIRGINIA/EAST TENNESSEE...

CITY           SKY/WX    TMP DP  RH WIND       PRES   REMARKS
WISE*          CLEAR     68  46  45 CALM      30.31S
JONESVILLE*    PTCLDY    64  55  72 CALM      30.27R
ABINGDON*      MOCLDY    71  54  54 CALM      30.28R
BRISTOL        CLOUDY    73  53  49 CALM      30.26R
KNOXVILLE      CLOUDY    69  59  70 SE10      30.22R
OAK RIDGE      MOCLDY    76  55  48 VRB3      30.23R
CROSSVILLE     PTCLDY    66  52  60 CALM      30.26R
NASHVILLE      CLEAR     73  54  51 CALM      30.19R
$$

...KEY TO REMARKS...
VSB - VISIBILITY IN MILES
WCI - WIND CHILL INDEX
HX  - HEAT INDEX

$$


USA.gov is the U.S. government's official web portal to all federal, state and local government web resources and services.